Vertical_Velocity
-1 -2 -3 -2 -2 -4 -5 -7 -12 -12 -4 4 -7 2 -3 -5 -4 -5 -2 -1 -2 -2 -3 -2 -2 -2 -3 -3 -2 -2 -2 -3 -1 -2 1 3 -1 -2
-2 -4 -3 -3 -3 -4 -4 -4 -5 -8 -15 -4 -2 -3 -3 -0 -1 -4 -3 -5 -3 -1 -3 -1 -2 -2 -3 -2 -3 -3 -1 -1 -3 -3 -1 -2 1 2
-4 -4 -1 -5 -2 -2 -3 -3 -3 -5 -14 4 -5 -2 -2 -4 -2 -2 -2 -3 -3 -1 -3 -2 -2 -3 -1 -3 -3 -2 -2 -1 -0 -1 -3 -3 -0 -3
-1 -5 -1 -6 -3 -2 -3 -2 -3 -2 -10 -6 -2 -1 -3 -2 -2 -5 -3 -2 -6 -3 -1 -3 -3 -3 -4 -1 -3 -3 -4 -3 -2 -1 -3 2 -3 -1
-2 -4 -1 -6 -3 -3 -3 -3 -2 -2 -3 -7 -3 -3 -2 -2 -3 -4 -3 -3 -4 -3 -4 -3 -2 -2 -2 -3 -2 -2 -2 -3 -2 -3 -0 -1 -0 -1
-2 -4 -1 -3 -3 -1 -2 -0 -0 -3 -2 -5 -3 -4 -4 3 -4 -4 -4 -5 -4 -2 -2 -3 -3 -2 -1 -0 -1 2 -3 -1 -3 -4 -4 -3 -2 -2
0 -2 -3 -1 -1 -2 -2 4 -1 -1 -3 -2 -3 -6 1 -1 -3 -1 -6 -6 -2 2 -7 -6 -2 -1 -1 1 -1 0 -2 -2 -2 -3 -4 -4 -3 -2
0 1 -0 -2 -1 -2 -2 -1 -3 -7 -0 -2 -0 -7 2 -5 -3 -3 -4 -3 -15 7 -5 -11 -3 -2 1 -3 -2 -2 -3 -0 -2 -3 -3 -3 -2 -2
-4 -3 -2 -1 -1 -3 3 -3 -2 1 2 -3 -6 -0 -5 2 2 -0 -1 -4 -6 3 -7 -17 12 -18 3 -5 -1 -3 -4 -6 -6 -4 -1 -2 0 1
-4 -3 -3 1 3 -0 -2 -4 -1 1 1 -1 -4 3 -6 3 -4 -1 -2 -2 -7 -5 6 -28 19 -24 10 -4 -2 1 -3 -1 -1 -4 -7 -3 -0 -1
-2 -2 1 1 5 1 -2 -4 -2 0 2 -2 -2 -2 -2 5 6 3 -3 1 -7 -5 -8 -9 9 -24 3 -18 -4 -5 -5 -1 -3 1 -1 -5 -4 2
1 -0 2 -2 0 1 -6 -7 -8 5 -1 0 1 0 1 1 3 -0 5 -4 2 -7 4 -1 7 3 -12 1 -6 -6 -3 -6 0 -0 3 0 -4 -5
-3 1 0 1 1 1 -0 -4 -3 1 1 -4 -3 -2 -1 -2 -1 0 3 2 -0 -8 -6 4 2 -2 8 -6 -8 4 -3 -5 -4 -7 0 4 1 6
-0 1 -0 0 1 0 0 -1 -2 -2 -1 -1 -4 -4 -4 -6 -2 -6 -5 -0 3 -3 3 4 -6 -1 -1 -9 -15 5 -2 -4 -3 -10 -4 0 2 3
-2 -1 -2 0 -3 -3 -0 1 3 -1 -3 -3 -3 -2 -1 1 4 -2 0 1 -4 1 4 -3 2 0 4 -8 -8 -9 -12 0 -4 -11 -3 -1 -4 5
-2 -1 3 0 -2 -1 -0 1 -2 -1 -1 0 1 1 2 -1 -3 1 -1 0 -3 -7 4 -0 -3 6 -5 1 7 -10 -6 -19 7 3 3 -12 -5 0
-1 -3 0 1 1 -0 -0 -0 0 1 -0 2 2 -0 -3 1 0 2 -1 -3 -4 -8 -11 0 0 5 4 0 -11 -0 -9 -3 -3 3 -1 -12 -13 -2
-2 1 2 1 -1 1 -1 0 1 2 1 3 1 -1 -2 -3 -3 -0 0 -1 -4 -4 -5 5 -1 -4 5 -14 17 -6 -0 -5 0 -1 4 -13 -23 21
-1 -5 -12 -7 -3 -3 -3 -2 -1 1 -1 -1 -2 -3 -3 -3 -0 -3 -1 0 -3 -2 -1 1 0 1 -7 -30 28 30 -10 -2 -6 -8 -0 1 -17 9
1 5 0 4 1 -0 -1 1 -1 -1 -1 -2 -3 -2 -1 -1 -4 -1 0 -3 -2 -1 -6 2 -4 -1 3 -5 -8 -4 17 -14 5 -5 -7 -0 9 3
-0 2 2 1 0 0 3 2 -0 -0 -0 -2 -1 -2 1 -1 -2 -1 -2 1 -1 -4 -12 -10 1 10 -6 -2 -11 -13 -5 10 9 -5 -5 -7 -1 -9
2 -2 1 0 1 1 1 1 -1 -2 -3 -3 -2 -3 2 0 -4 -1 -0 -5 -0 1 -5 -1 4 5 3 11 -8 -6 -11 -7 12 6 9 17 -0 -18
-0 -2 0 1 -1 -0 -1 -3 -4 -2 -1 -1 -0 1 -0 -4 0 -3 -2 2 0 -1 4 -8 2 8 -4 -1 7 -8 -4 -6 -8 -12 -22 13 11 9
Height
3054 3054 3054 3053 3051 3050 3048 3047 3044 3039 3040 3040 3041 3045 3043 3040 3037 3037 3037 3037 3037 3038 3038 3038 3039 3039 3040 3041 3041 3041 3042 3045 3049 3052 3055 3058 3062 3068
3042 3042 3041 3040 3038 3037 3034 3032 3030 3026 3021 3023 3023 3023 3025 3026 3025 3023 3022 3021 3021 3021 3022 3022 3022 3022 3023 3024 3026 3026 3027 3027 3028 3031 3036 3040 3043 3047
3030 3029 3028 3026 3025 3023 3020 3018 3016 3013 3009 3008 3007 3007 3007 3007 3009 3009 3008 3007 3007 3008 3006 3007 3006 3007 3007 3007 3008 3010 3010 3011 3012 3013 3015 3019 3024 3028
3017 3016 3015 3013 3012 3010 3007 3006 3003 3002 2998 2995 2996 2996 2994 2994 2993 2993 2994 2994 2993 2994 2994 2992 2993 2993 2993 2993 2992 2993 2994 2994 2996 2996 2997 3000 3001 3006
3004 3002 3002 3000 2998 2996 2994 2992 2991 2988 2986 2983 2982 2983 2982 2981 2980 2980 2980 2980 2981 2980 2980 2981 2981 2981 2980 2979 2979 2979 2979 2979 2979 2979 2980 2981 2983 2985
2989 2986 2985 2984 2983 2982 2980 2979 2978 2975 2974 2972 2970 2970 2970 2970 2967 2966 2966 2967 2967 2968 2968 2967 2968 2969 2969 2969 2968 2967 2966 2965 2965 2965 2965 2965 2966 2967
2972 2971 2971 2970 2969 2967 2966 2966 2965 2963 2962 2960 2959 2959 2959 2957 2955 2954 2952 2953 2955 2955 2954 2957 2956 2955 2956 2957 2957 2957 2956 2954 2953 2951 2950 2950 2950 2950
2959 2958 2957 2956 2955 2953 2953 2952 2952 2950 2949 2948 2947 2946 2946 2944 2944 2943 2942 2941 2939 2946 2942 2941 2943 2941 2943 2943 2944 2944 2944 2943 2941 2939 2937 2935 2935 2934
2942 2943 2943 2942 2941 2940 2940 2940 2940 2940 2938 2938 2935 2934 2933 2934 2933 2931 2931 2929 2928 2930 2929 2927 2929 2927 2930 2930 2931 2930 2929 2927 2927 2926 2924 2922 2921 2919
2928 2928 2928 2928 2928 2926 2927 2927 2927 2926 2926 2926 2924 2923 2923 2923 2921 2921 2920 2918 2917 2917 2919 2910 2915 2914 2916 2916 2917 2917 2915 2914 2912 2910 2908 2907 2905 2903
2915 2915 2914 2914 2915 2914 2913 2913 2913 2913 2913 2912 2911 2910 2910 2910 2911 2910 2907 2907 2904 2904 2905 2902 2902 2900 2900 2899 2900 2900 2901 2900 2898 2896 2893 2892 2891 2889
2902 2902 2903 2902 2901 2901 2900 2899 2898 2900 2898 2898 2897 2896 2896 2896 2897 2897 2896 2894 2893 2891 2896 2893 2890 2889 2884 2886 2884 2885 2884 2884 2883 2882 2880 2878 2876 2874
2889 2890 2890 2891 2891 2889 2888 2886 2885 2886 2884 2883 2882 2882 2883 2883 2884 2885 2884 2883 2880 2878 2883 2881 2877 2877 2874 2871 2871 2870 2869 2867 2865 2864 2865 2863 2861 2860
2876 2877 2877 2877 2877 2877 2875 2874 2873 2873 2873 2871 2870 2870 2871 2872 2873 2872 2872 2871 2870 2869 2869 2869 2864 2864 2861 2856 2852 2854 2853 2851 2849 2847 2845 2844 2843 2843
2863 2863 2864 2864 2864 2863 2863 2862 2863 2863 2861 2860 2859 2859 2860 2861 2861 2860 2861 2859 2857 2856 2855 2855 2852 2850 2847 2841 2837 2836 2835 2834 2834 2831 2830 2827 2826 2826
2849 2850 2851 2851 2850 2850 2850 2850 2850 2850 2849 2848 2848 2849 2850 2848 2848 2849 2848 2847 2843 2841 2843 2842 2839 2836 2831 2828 2825 2821 2822 2818 2820 2817 2814 2811 2810 2809
2836 2837 2837 2838 2838 2838 2839 2839 2839 2839 2838 2838 2838 2837 2837 2838 2838 2838 2836 2834 2830 2827 2826 2827 2826 2822 2818 2815 2811 2810 2807 2805 2805 2802 2799 2794 2793 2793
2823 2824 2826 2826 2827 2828 2828 2828 2828 2829 2828 2829 2828 2828 2828 2827 2827 2826 2824 2821 2817 2815 2813 2812 2810 2807 2804 2801 2801 2796 2795 2791 2789 2786 2783 2777 2773 2776
2814 2815 2814 2815 2816 2817 2817 2818 2819 2819 2819 2819 2818 2818 2817 2816 2815 2813 2811 2808 2804 2802 2800 2799 2796 2794 2788 2780 2786 2788 2780 2776 2773 2769 2767 2763 2756 2757
2802 2803 2804 2805 2805 2806 2807 2807 2808 2809 2809 2808 2808 2807 2807 2805 2802 2800 2798 2795 2792 2789 2786 2785 2783 2782 2776 2769 2762 2764 2769 2762 2759 2752 2748 2745 2741 2740
2789 2791 2792 2794 2795 2796 2796 2797 2797 2797 2797 2797 2797 2796 2795 2793 2790 2789 2786 2784 2780 2776 2772 2770 2771 2769 2762 2755 2745 2742 2745 2748 2744 2737 2731 2725 2720 2720
2777 2779 2781 2782 2783 2784 2785 2785 2786 2786 2786 2786 2786 2785 2784 2782 2779 2777 2775 2771 2769 2765 2761 2759 2758 2755 2749 2741 2731 2726 2724 2725 2725 2721 2717 2712 2706 2697
2768 2769 2771 2772 2773 2774 2775 2776 2776 2776 2777 2777 2777 2776 2774 2772 2770 2767 2764 2761 2758 2753 2750 2744 2742 2738 2731 2725 2717 2709 2704 2700 2697 2692 2687 2691 2687 2682